Regional Weather Roundup
Issued by NWS

Home | Current Version | Previous Version | Graphics & Text | Print | Product List | Glossary On
Versions: 1 2 3 4 5 6 7 8 9 10 11 12 13 14 15 16 17 18 19 20 21 22 23 24 25 26 27 28 29 30 31 32 33 34 35 36 37 38 39 40 41 42 43 44 45 46 47 48 49 50
000
ASUS43 KDTX 231710
RWRMI
MICHIGAN HOURLY REGIONAL WEATHER ROUNDUP
NATIONAL WEATHER SERVICE DETROIT/PONTIAC MI
ISSUED BY NATIONAL WEATHER SERVICE GRAND RAPIDS MI
100 PM EDT WED AUG 23 2017

NOTE: "FAIR" INDICATES FEW OR NO CLOUDS BELOW 12,000 FEET WITH NO
SIGNIFICANT WEATHER AND/OR OBSTRUCTION TO VISIBILITY.

MIZ047>049-052>055-059>063-066>070-074>076-081>083-231800-
SOUTHEAST LOWER MICHIGAN

CITY           SKY/WX    TMP DP  RH WIND       PRES   REMARKS
ADRIAN         CLOUDY    72  53  51 N8        29.99S
ALMA           MOSUNNY   70  49  48 NW13G20   29.97S
ANN ARBOR      MOSUNNY   72  52  49 W15       29.96S
BAD AXE        PTSUNNY   66  51  58 NW13      29.95R
DETROIT CITY   PTSUNNY   72  52  49 NW12      29.95S
DETROIT        PTSUNNY   73  52  47 NW14      29.96S
FLINT          PTSUNNY   70  54  56 NW14G21   29.96S
GROSSE ILE     PTSUNNY   75  52  44 NW12G18   29.95S
HILLSDALE      PTSUNNY   70  52  52 NW13      29.99F
HOWELL         MOSUNNY   71  52  50 NW12G21   29.97S

CITY           SKY/WX    TMP DP  RH WIND       PRES   REMARKS
JACKSON        PTSUNNY   71  51  49 NW8       29.98S
LANSING        MOSUNNY   72  51  47 NW12G18   29.98S
MASON          MOSUNNY   73  51  44 NW14      29.98S
MONROE         PTSUNNY   73  54  50 NW10G18   29.96S
MT. CLEMENS    MOSUNNY   71  54  55 NW12      29.94R
PONTIAC        PTSUNNY   70  52  52 NW10G24   29.95S
PORT HOPE        N/A     67  54  63 NW10      29.92R
PORT HURON     PTSUNNY   72  54  53 NW9       29.94S
TRI CITIES     PTSUNNY   70  54  56 W10       29.96S
YPSILANTI      MOSUNNY   76  55  48 W15G21    29.96F
$$
MIZ043>046-050>051-056>058-064>065-071>073-077>080-231800-
SOUTHWEST LOWER MICHIGAN

CITY           SKY/WX    TMP DP  RH WIND       PRES   REMARKS
BATTLE CREEK   PTSUNNY   71  54  54 NW13G22   30.00S
BENTON HARBOR  MOSUNNY   72  54  53 W10G18    30.03S
BIG RAPIDS     PTSUNNY   66  51  58 NW9       29.97S
COLDWATER      CLOUDY    73  50  45 W16       30.00S
HOLLAND        MOSUNNY   70  54  56 NW13G18   30.02R
GRAND RAPIDS   MOSUNNY   72  51  47 W13       29.98F
KALAMAZOO      MOSUNNY   75  49  39 W16G23    30.00F
MARSHALL       PTSUNNY   73  53  50 W12G17    29.98F
MOUNT PLEASANT CLOUDY    68  52  56 NW6       29.96S
MUSKEGON       PTSUNNY   71  53  52 W15G23    30.00S
STURGIS        PTSUNNY   72  53  49 NW9G20    30.00S
$$
MIZ016>042-231800-
NORTHERN LOWER MICHIGAN

CITY           SKY/WX    TMP DP  RH WIND       PRES   REMARKS
ALPENA         MOSUNNY   66  51  58 W14G22    29.92R
BEAVER ISLAND  CLOUDY    63  48  59 NW10G21   29.97R
BELLAIRE       PTSUNNY   64  48  57 W8G22     29.97S
CADILLAC       PTSUNNY   67  47  50 NW13      29.98R
CHARLEVOIX     PTSUNNY   64  51  63 NW13      30.00S
GAYLORD        MOSUNNY   62  46  55 VRB7G18   29.96R
HOUGHTON LAKE  PTSUNNY   64  49  57 NW12      29.96S
MANISTEE       MOSUNNY   67  54  63 NW13G20   30.00R
OSCODA         PTSUNNY   71  48  45 NW10G24   29.91S
PELLSTON       PTSUNNY   63  49  60 NW15      29.95R
TRAVERSE CITY  PTSUNNY   65  50  58 NW12G22   29.97R
LUDINGTON      PTSUNNY   67  52  59 NW9G17    30.00S
$$
MIZ007>008-015-231800-
EASTERN UPPER MICHIGAN

CITY           SKY/WX    TMP DP  RH WIND       PRES   REMARKS
KINROSS        CLOUDY    58  48  69 NW17G23   29.93R
MACKINAC ISLAN CLOUDY    60  50  69 NW9       29.93S
NEWBERRY       CLOUDY    56  51  82 W13G22    29.95S
S. S. MARIE    LGT RAIN  57  50  77 NW14G24   29.92R
$$
MIZ004>006-011>014-085-231800-
CENTRAL UPPER MICHIGAN

CITY           SKY/WX    TMP DP  RH WIND       PRES   REMARKS
MANISTIQUE     CLOUDY    62  43  49 NW18G24   29.97R
ESCANABA       PTSUNNY   66  46  48 NW12G20   29.98S
MENOMINEE      CLOUDY    65  49  56 N12       30.01R
SAWYER-GWINN   MOSUNNY   59  45  58 NW14      30.01R
$$
MIZ001>003-009>011-084-231800-
WESTERN UPPER MICHIGAN

CITY           SKY/WX    TMP DP  RH WIND       PRES   REMARKS
IRON MOUNTAIN  PTSUNNY   64  46  52 NW16G23   30.00S
HOUGHTON       MOSUNNY   58  43  57 NW17      30.03R
COPPER HARBOR    N/A     57  46  66 N20       30.01R
IRONWOOD       CLOUDY    59  49  69 NW12G21   30.09R
$$

ABBREVIATIONS USED IN REMARKS
   TC - TEMPERATURE IN CELSIUS
  WCI - WIND CHILL INDEX
   HX - HEAT INDEX
  VSB - VISIBILITY





USA.gov is the U.S. government's official web portal to all federal, state and local government web resources and services.